Location: Mauries
(43.6188°N, 0.3322°W)
Time: 19:48:53
(UTC+00:00)

Cosmos 1805 Rocket - Pass Details

Date: 14 January 2026
Orbit: 599 x 623 km, 82.5° (Epoch: 10 February)

Event Time Altitude Azimuth Distance (km) Brightness Sun altitude
Rises 05:46:59 0° 189° (S) 2,890 7.0 -18.6°
Reaches altitude 10° 05:49:12 10° 191° (S) 1,988 6.2 -18.2°
Maximum altitude 05:53:37 81° 277° (W) 637 3.4 -17.4°
Drops below altitude 10° 05:58:03 10° 6° (N) 1,999 6.1 -16.7°
Sets 06:00:18 0° 8° (N) 2,907 6.9 -16.3°
